Year,Month,Day,Hour,Minute,Value (Times are PST for temperature in C)
2014,11,26,00,00,6.40
2014,11,26,00,01,6.40
2014,11,26,00,02,6.40
2014,11,26,00,03,6.40
2014,11,26,00,04,6.40
2014,11,26,00,05,6.40
2014,11,26,00,06,6.40
2014,11,26,00,07,6.40
2014,11,26,00,08,6.40
2014,11,26,00,09,6.40
2014,11,26,00,10,6.40
2014,11,26,00,11,6.40
2014,11,26,00,12,6.40
2014,11,26,00,13,6.40
2014,11,26,00,14,6.40
2014,11,26,00,15,6.40
2014,11,26,00,16,6.40
2014,11,26,00,17,6.40
2014,11,26,00,18,6.40
2014,11,26,00,19,6.40
2014,11,26,00,20,6.40
2014,11,26,00,21,6.40
2014,11,26,00,22,6.40
2014,11,26,00,23,6.40
2014,11,26,00,24,6.40
2014,11,26,00,25,6.40
2014,11,26,00,26,6.40
2014,11,26,00,27,6.40
2014,11,26,00,28,6.40
2014,11,26,00,29,6.40
2014,11,26,00,30,6.40
2014,11,26,00,31,6.40
2014,11,26,00,32,6.40
2014,11,26,00,33,6.40
2014,11,26,00,34,6.40
2014,11,26,00,35,6.40
2014,11,26,00,36,6.50
2014,11,26,00,37,6.60
2014,11,26,00,38,6.60
2014,11,26,00,39,6.60
2014,11,26,00,40,6.60
2014,11,26,00,41,6.60
2014,11,26,00,42,6.60
2014,11,26,00,43,6.40
2014,11,26,00,44,6.40
2014,11,26,00,45,6.40
2014,11,26,00,46,6.40
2014,11,26,00,47,6.50
2014,11,26,00,48,6.50
2014,11,26,00,49,6.60
2014,11,26,00,50,6.60
2014,11,26,00,51,6.60
2014,11,26,00,52,6.60
2014,11,26,00,53,6.60
2014,11,26,00,54,6.60
2014,11,26,00,55,6.60
2014,11,26,00,56,6.60
2014,11,26,00,57,6.60
2014,11,26,00,58,6.60
2014,11,26,00,59,6.60
2014,11,26,01,00,6.60
2014,11,26,01,01,6.60
2014,11,26,01,02,6.60
2014,11,26,01,03,6.60
2014,11,26,01,04,6.60
2014,11,26,01,05,6.50
2014,11,26,01,06,6.40
2014,11,26,01,07,6.50
2014,11,26,01,08,6.60
2014,11,26,01,09,6.60
2014,11,26,01,10,6.60
2014,11,26,01,11,6.60
2014,11,26,01,12,6.60
2014,11,26,01,13,6.60
2014,11,26,01,14,6.60
2014,11,26,01,15,6.60
2014,11,26,01,16,6.60
2014,11,26,01,17,6.60
2014,11,26,01,18,6.60
2014,11,26,01,19,6.60
2014,11,26,01,20,6.60
2014,11,26,01,21,6.60
2014,11,26,01,22,6.60
2014,11,26,01,23,6.60
2014,11,26,01,24,6.60
2014,11,26,01,25,6.60
2014,11,26,01,26,6.60
2014,11,26,01,27,6.60
2014,11,26,01,28,6.60
2014,11,26,01,29,6.60
2014,11,26,01,30,6.60
2014,11,26,01,31,6.60
2014,11,26,01,32,6.60
2014,11,26,01,33,6.60
2014,11,26,01,34,6.60
2014,11,26,01,35,6.60
2014,11,26,01,36,6.60
2014,11,26,01,37,6.60
2014,11,26,01,38,6.60
2014,11,26,01,39,6.60
2014,11,26,01,40,6.60
2014,11,26,01,41,6.60
2014,11,26,01,42,6.60
2014,11,26,01,43,6.60
2014,11,26,01,44,6.60
2014,11,26,01,45,6.60
2014,11,26,01,46,6.60
2014,11,26,01,47,6.60
2014,11,26,01,48,6.60
2014,11,26,01,49,6.60
2014,11,26,01,50,6.60
2014,11,26,01,51,6.60
2014,11,26,01,52,6.60
2014,11,26,01,53,6.70
2014,11,26,01,54,6.70
2014,11,26,01,55,6.70
2014,11,26,01,56,6.70
2014,11,26,01,57,6.70
2014,11,26,01,58,6.70
2014,11,26,01,59,6.70
2014,11,26,02,00,6.70
2014,11,26,02,01,6.70
2014,11,26,02,02,6.70
2014,11,26,02,03,6.80
2014,11,26,02,04,6.80
2014,11,26,02,05,6.80
2014,11,26,02,06,6.80
2014,11,26,02,07,6.80
2014,11,26,02,08,6.80
2014,11,26,02,09,6.80
2014,11,26,02,10,6.80
2014,11,26,02,11,6.80
2014,11,26,02,12,6.80
2014,11,26,02,13,6.80
2014,11,26,02,14,6.80
2014,11,26,02,15,6.80
2014,11,26,02,16,6.80
2014,11,26,02,17,6.80
2014,11,26,02,18,6.80
2014,11,26,02,19,6.80
2014,11,26,02,20,6.80
2014,11,26,02,21,6.80
2014,11,26,02,22,6.80
2014,11,26,02,23,6.80
2014,11,26,02,24,6.80
2014,11,26,02,25,6.80
2014,11,26,02,26,6.80
2014,11,26,02,27,6.80
2014,11,26,02,28,6.80
2014,11,26,02,29,6.80
2014,11,26,02,30,6.80
2014,11,26,02,31,6.80
2014,11,26,02,32,6.80
2014,11,26,02,33,6.80
2014,11,26,02,34,6.80
2014,11,26,02,35,6.80
2014,11,26,02,36,6.80
2014,11,26,02,37,6.80
2014,11,26,02,38,6.80
2014,11,26,02,39,6.80
2014,11,26,02,40,6.80
2014,11,26,02,41,6.80
2014,11,26,02,42,6.80
2014,11,26,02,43,6.80
2014,11,26,02,44,6.80
2014,11,26,02,45,6.80
2014,11,26,02,46,6.80
2014,11,26,02,47,6.80
2014,11,26,02,48,6.80
2014,11,26,02,49,6.80
2014,11,26,02,50,6.80
2014,11,26,02,51,6.80
2014,11,26,02,52,6.80
2014,11,26,02,53,6.80
2014,11,26,02,54,6.80
2014,11,26,02,55,6.80
2014,11,26,02,56,6.80
2014,11,26,02,57,6.80
2014,11,26,02,58,6.80
2014,11,26,02,59,6.80
2014,11,26,03,00,6.80
2014,11,26,03,01,6.90
2014,11,26,03,02,6.90
2014,11,26,03,03,6.90
2014,11,26,03,04,6.90
2014,11,26,03,05,6.90
2014,11,26,03,06,6.90
2014,11,26,03,07,6.90
2014,11,26,03,08,6.80
2014,11,26,03,09,6.80
2014,11,26,03,10,6.80
2014,11,26,03,11,6.80
2014,11,26,03,12,6.80
2014,11,26,03,13,6.80
2014,11,26,03,14,6.80
2014,11,26,03,15,6.80
2014,11,26,03,16,6.80
2014,11,26,03,17,6.80
2014,11,26,03,18,6.80
2014,11,26,03,19,6.80
2014,11,26,03,20,6.80
2014,11,26,03,21,6.80
2014,11,26,03,22,6.80
2014,11,26,03,23,6.80
2014,11,26,03,24,6.80
2014,11,26,03,25,6.80
2014,11,26,03,26,6.90
2014,11,26,03,27,6.90
2014,11,26,03,28,6.90
2014,11,26,03,29,6.90
2014,11,26,03,30,6.90
2014,11,26,03,31,6.90
2014,11,26,03,32,6.90
2014,11,26,03,33,6.90
2014,11,26,03,34,6.90
2014,11,26,03,35,7.00
2014,11,26,03,36,7.00
2014,11,26,03,37,7.00
2014,11,26,03,38,7.00
2014,11,26,03,39,7.00
2014,11,26,03,40,7.00
2014,11,26,03,41,7.00
2014,11,26,03,42,7.10
2014,11,26,03,43,7.10
2014,11,26,03,44,7.10
2014,11,26,03,45,7.10
2014,11,26,03,46,7.10
2014,11,26,03,47,7.10
2014,11,26,03,48,7.10
2014,11,26,03,49,7.20
2014,11,26,03,50,7.20
2014,11,26,03,51,7.20
2014,11,26,03,52,7.20
2014,11,26,03,53,7.20
2014,11,26,03,54,7.30
2014,11,26,03,55,7.30
2014,11,26,03,56,7.30
2014,11,26,03,57,7.30
2014,11,26,03,58,7.30
2014,11,26,03,59,7.30
2014,11,26,04,00,7.30
2014,11,26,04,01,7.30
2014,11,26,04,02,7.30
2014,11,26,04,03,7.30
2014,11,26,04,04,7.30
2014,11,26,04,05,7.40
2014,11,26,04,06,7.40
2014,11,26,04,07,7.40
2014,11,26,04,08,7.40
2014,11,26,04,09,7.40
2014,11,26,04,10,7.40
2014,11,26,04,11,7.40
2014,11,26,04,12,7.40
2014,11,26,04,13,7.50
2014,11,26,04,14,7.50
2014,11,26,04,15,7.50
2014,11,26,04,16,7.50
2014,11,26,04,17,7.50
2014,11,26,04,18,7.50
2014,11,26,04,19,7.50
2014,11,26,04,20,7.60
2014,11,26,04,21,7.60
2014,11,26,04,22,7.60
2014,11,26,04,23,7.60
2014,11,26,04,24,7.70
2014,11,26,04,25,7.70
2014,11,26,04,26,7.70
2014,11,26,04,27,7.70
2014,11,26,04,28,7.80
2014,11,26,04,29,7.80
2014,11,26,04,30,7.80
2014,11,26,04,31,7.80
2014,11,26,04,32,7.80
2014,11,26,04,33,7.80
2014,11,26,04,34,7.80
2014,11,26,04,35,7.90
2014,11,26,04,36,7.90
2014,11,26,04,37,7.90
2014,11,26,04,38,7.90
2014,11,26,04,39,7.90
2014,11,26,04,40,8.00
2014,11,26,04,41,8.00
2014,11,26,04,42,8.00
2014,11,26,04,43,8.00
2014,11,26,04,44,8.00
2014,11,26,04,45,8.10
2014,11,26,04,46,8.10
2014,11,26,04,47,8.10
2014,11,26,04,48,8.10
2014,11,26,04,49,8.10
2014,11,26,04,50,8.10
2014,11,26,04,51,8.10
2014,11,26,04,52,8.10
2014,11,26,04,53,8.20
2014,11,26,04,54,8.20
2014,11,26,04,55,8.20
2014,11,26,04,56,8.20
2014,11,26,04,57,8.20
2014,11,26,04,58,8.20
2014,11,26,04,59,8.20
2014,11,26,05,00,8.30
2014,11,26,05,01,8.30
2014,11,26,05,02,8.30
2014,11,26,05,03,8.30
2014,11,26,05,04,8.40
2014,11,26,05,05,8.40
2014,11,26,05,06,8.40
2014,11,26,05,07,8.40
2014,11,26,05,08,8.40
2014,11,26,05,09,8.50
2014,11,26,05,10,8.50
2014,11,26,05,11,8.50
2014,11,26,05,12,8.50
2014,11,26,05,13,8.50
2014,11,26,05,14,8.50
2014,11,26,05,15,8.50
2014,11,26,05,16,8.50
2014,11,26,05,17,8.60
2014,11,26,05,18,8.60
2014,11,26,05,19,8.60
2014,11,26,05,20,8.60
2014,11,26,05,21,8.70
2014,11,26,05,22,8.70
2014,11,26,05,23,8.70
2014,11,26,05,24,8.70
2014,11,26,05,25,8.70
2014,11,26,05,26,8.70
2014,11,26,05,27,8.70
2014,11,26,05,28,8.70
2014,11,26,05,29,8.70
2014,11,26,05,30,8.70
2014,11,26,05,31,8.70
2014,11,26,05,32,8.70
2014,11,26,05,33,8.70
2014,11,26,05,34,8.70
2014,11,26,05,35,8.70
2014,11,26,05,36,8.70
2014,11,26,05,37,8.70
2014,11,26,05,38,8.70
2014,11,26,05,39,8.70
2014,11,26,05,40,8.70
2014,11,26,05,41,8.70
2014,11,26,05,42,8.70
2014,11,26,05,43,8.70
2014,11,26,05,44,8.70
2014,11,26,05,45,8.80
2014,11,26,05,46,8.80
2014,11,26,05,47,8.80
2014,11,26,05,48,8.80
2014,11,26,05,49,8.80
2014,11,26,05,50,8.80
2014,11,26,05,51,8.80
2014,11,26,05,52,8.80
2014,11,26,05,53,8.80
2014,11,26,05,54,8.80
2014,11,26,05,55,8.90
2014,11,26,05,56,8.90
2014,11,26,05,57,8.90
2014,11,26,05,58,8.90
2014,11,26,05,59,8.90
2014,11,26,06,00,8.90
2014,11,26,06,01,8.90
2014,11,26,06,02,8.90
2014,11,26,06,03,8.90
2014,11,26,06,04,8.90
2014,11,26,06,05,8.90
2014,11,26,06,06,8.90
2014,11,26,06,07,8.90
2014,11,26,06,08,8.90
2014,11,26,06,09,8.90
2014,11,26,06,10,8.90
2014,11,26,06,11,8.90
2014,11,26,06,12,9.00
2014,11,26,06,13,9.00
2014,11,26,06,14,9.00
2014,11,26,06,15,9.00
2014,11,26,06,16,9.00
2014,11,26,06,17,9.00
2014,11,26,06,18,9.00
2014,11,26,06,19,9.00
2014,11,26,06,20,9.00
2014,11,26,06,21,9.00
2014,11,26,06,22,9.00
2014,11,26,06,23,9.00
2014,11,26,06,24,9.00
2014,11,26,06,25,9.00
2014,11,26,06,26,9.10
2014,11,26,06,27,9.10
2014,11,26,06,28,9.10
2014,11,26,06,29,9.10
2014,11,26,06,30,9.10
2014,11,26,06,31,9.10
2014,11,26,06,32,9.20
2014,11,26,06,33,9.20
2014,11,26,06,34,9.20
2014,11,26,06,35,9.20
2014,11,26,06,36,9.20
2014,11,26,06,37,9.20
2014,11,26,06,38,9.20
2014,11,26,06,39,9.20
2014,11,26,06,40,9.20
2014,11,26,06,41,9.30
2014,11,26,06,42,9.30
2014,11,26,06,43,9.30
2014,11,26,06,44,9.30
2014,11,26,06,45,9.30
2014,11,26,06,46,9.30
2014,11,26,06,47,9.40
2014,11,26,06,48,9.40
2014,11,26,06,49,9.40
2014,11,26,06,50,9.40
2014,11,26,06,51,9.40
2014,11,26,06,52,9.40
2014,11,26,06,53,9.50
2014,11,26,06,54,9.50
2014,11,26,06,55,9.50
2014,11,26,06,56,9.50
2014,11,26,06,57,9.60
2014,11,26,06,58,9.60
2014,11,26,06,59,9.60
2014,11,26,07,00,9.70
2014,11,26,07,01,9.70
2014,11,26,07,02,9.70
2014,11,26,07,03,9.70
2014,11,26,07,04,9.70
2014,11,26,07,05,9.80
2014,11,26,07,06,9.80
2014,11,26,07,07,9.80
2014,11,26,07,08,9.80
2014,11,26,07,09,9.90
2014,11,26,07,10,9.90
2014,11,26,07,11,9.90
2014,11,26,07,12,9.90
2014,11,26,07,13,9.90
2014,11,26,07,14,9.90
2014,11,26,07,15,9.90
2014,11,26,07,16,10.00
2014,11,26,07,17,10.10
2014,11,26,07,18,10.10
2014,11,26,07,19,10.20
2014,11,26,07,20,10.30
2014,11,26,07,21,10.40
2014,11,26,07,22,10.40
2014,11,26,07,23,10.40
2014,11,26,07,24,10.40
2014,11,26,07,25,10.40
2014,11,26,07,26,10.40
2014,11,26,07,27,10.40
2014,11,26,07,28,10.30
2014,11,26,07,29,10.30
2014,11,26,07,30,10.10
2014,11,26,07,31,10.00
2014,11,26,07,32,9.90
2014,11,26,07,33,9.80
2014,11,26,07,34,9.70
2014,11,26,07,35,9.70
2014,11,26,07,36,9.60
2014,11,26,07,37,9.60
2014,11,26,07,38,9.60
2014,11,26,07,39,9.50
2014,11,26,07,40,9.50
2014,11,26,07,41,9.50
2014,11,26,07,42,9.40
2014,11,26,07,43,9.40
2014,11,26,07,44,9.40
2014,11,26,07,45,9.40
2014,11,26,07,46,9.40
2014,11,26,07,47,9.40
2014,11,26,07,48,9.40
2014,11,26,07,49,9.40
2014,11,26,07,50,9.40
2014,11,26,07,51,9.30
2014,11,26,07,52,9.30
2014,11,26,07,53,9.30
2014,11,26,07,54,9.30
2014,11,26,07,55,9.30
2014,11,26,07,56,9.30
2014,11,26,07,57,9.40
2014,11,26,07,58,9.40
2014,11,26,07,59,9.40
2014,11,26,08,00,9.40
2014,11,26,08,01,9.40
2014,11,26,08,02,9.40
2014,11,26,08,03,9.40
2014,11,26,08,04,9.40
2014,11,26,08,05,9.40
2014,11,26,08,06,9.30
2014,11,26,08,07,9.30
2014,11,26,08,08,9.30
2014,11,26,08,09,9.30
2014,11,26,08,10,9.30
2014,11,26,08,11,9.30
2014,11,26,08,12,9.30
2014,11,26,08,13,9.30
2014,11,26,08,14,9.20
2014,11,26,08,15,9.20
2014,11,26,08,16,9.20
2014,11,26,08,17,9.20
2014,11,26,08,18,9.20
2014,11,26,08,19,9.20
2014,11,26,08,20,9.20
2014,11,26,08,21,9.20
2014,11,26,08,22,9.20
2014,11,26,08,23,9.20
2014,11,26,08,24,9.20
2014,11,26,08,25,9.20
2014,11,26,08,26,9.20
2014,11,26,08,27,9.20
2014,11,26,08,28,9.20
2014,11,26,08,29,9.20
2014,11,26,08,30,9.20
2014,11,26,08,31,9.20
2014,11,26,08,32,9.20
2014,11,26,08,33,9.20
2014,11,26,08,34,9.20
2014,11,26,08,35,9.20
2014,11,26,08,36,9.20
2014,11,26,08,37,9.20
2014,11,26,08,38,9.10
2014,11,26,08,39,9.10
2014,11,26,08,40,9.10
2014,11,26,08,41,9.10
2014,11,26,08,42,9.10
2014,11,26,08,43,9.10
2014,11,26,08,44,9.10
2014,11,26,08,45,9.10
2014,11,26,08,46,9.20
2014,11,26,08,47,9.20
2014,11,26,08,48,9.20
2014,11,26,08,49,9.20
2014,11,26,08,50,9.20
2014,11,26,08,51,9.20
2014,11,26,08,52,9.20
2014,11,26,08,53,9.20
2014,11,26,08,54,9.20
2014,11,26,08,55,9.20
2014,11,26,08,56,9.20
2014,11,26,08,57,9.20
2014,11,26,08,58,9.20
2014,11,26,08,59,9.20
2014,11,26,09,00,9.20
2014,11,26,09,01,9.20
2014,11,26,09,02,9.20
2014,11,26,09,03,9.20
2014,11,26,09,04,9.20
2014,11,26,09,05,9.20
2014,11,26,09,06,9.20
2014,11,26,09,07,9.20
2014,11,26,09,08,9.20
2014,11,26,09,09,9.30
2014,11,26,09,10,9.30
2014,11,26,09,11,9.30
2014,11,26,09,12,9.40
2014,11,26,09,13,9.40
2014,11,26,09,14,9.40
2014,11,26,09,15,9.50
2014,11,26,09,16,9.50
2014,11,26,09,17,9.50
2014,11,26,09,18,9.60
2014,11,26,09,19,9.60
2014,11,26,09,20,9.70
2014,11,26,09,21,9.70
2014,11,26,09,22,9.70
2014,11,26,09,23,9.70
2014,11,26,09,24,9.80
2014,11,26,09,25,9.80
2014,11,26,09,26,9.80
2014,11,26,09,27,9.90
2014,11,26,09,28,9.90
2014,11,26,09,29,9.90
2014,11,26,09,30,9.90
2014,11,26,09,31,9.90
2014,11,26,09,32,9.90
2014,11,26,09,33,9.90
2014,11,26,09,34,10.00
2014,11,26,09,35,10.10
2014,11,26,09,36,10.10
2014,11,26,09,37,10.10
2014,11,26,09,38,10.10
2014,11,26,09,39,10.20
2014,11,26,09,40,10.20
2014,11,26,09,41,10.20
2014,11,26,09,42,10.30
2014,11,26,09,43,10.30
2014,11,26,09,44,10.40
2014,11,26,09,45,10.40
2014,11,26,09,46,10.40
2014,11,26,09,47,10.40
2014,11,26,09,48,10.50
2014,11,26,09,49,10.60
2014,11,26,09,50,10.60
2014,11,26,09,51,10.60
2014,11,26,09,52,10.60
2014,11,26,09,53,10.60
2014,11,26,09,54,10.60
2014,11,26,09,55,10.70
2014,11,26,09,56,10.70
2014,11,26,09,57,10.70
2014,11,26,09,58,10.70
2014,11,26,09,59,10.70
2014,11,26,10,00,10.80
2014,11,26,10,01,10.80
2014,11,26,10,02,10.80
2014,11,26,10,03,10.80
2014,11,26,10,04,10.80
2014,11,26,10,05,10.80
2014,11,26,10,06,10.80
2014,11,26,10,07,10.80
2014,11,26,10,08,10.90
2014,11,26,10,09,10.90
2014,11,26,10,10,10.90
2014,11,26,10,11,10.90
2014,11,26,10,12,10.90
2014,11,26,10,13,10.90
2014,11,26,10,14,10.90
2014,11,26,10,15,10.90
2014,11,26,10,16,10.90
2014,11,26,10,17,10.90
2014,11,26,10,18,11.00
2014,11,26,10,19,11.10
2014,11,26,10,20,11.10
2014,11,26,10,21,11.10
2014,11,26,10,22,11.10
2014,11,26,10,23,11.10
2014,11,26,10,24,11.10
2014,11,26,10,25,11.10
2014,11,26,10,26,11.10
2014,11,26,10,27,11.10
2014,11,26,10,28,11.10
2014,11,26,10,29,11.10
2014,11,26,10,30,11.10
2014,11,26,10,31,11.10
2014,11,26,10,32,11.10
2014,11,26,10,33,11.10
2014,11,26,10,34,11.10
2014,11,26,10,35,11.10
2014,11,26,10,36,11.10
2014,11,26,10,37,11.10
2014,11,26,10,38,11.10
2014,11,26,10,39,11.10
2014,11,26,10,40,11.20
2014,11,26,10,41,11.20
2014,11,26,10,42,11.20
2014,11,26,10,43,11.20
2014,11,26,10,44,11.30
2014,11,26,10,45,11.30
2014,11,26,10,46,11.30
2014,11,26,10,47,11.30
2014,11,26,10,48,11.30
2014,11,26,10,49,11.30
2014,11,26,10,50,11.30
2014,11,26,10,51,11.30
2014,11,26,10,52,11.40
2014,11,26,10,53,11.40
2014,11,26,10,54,11.40
2014,11,26,10,55,11.40
2014,11,26,10,56,11.40
2014,11,26,10,57,11.40
2014,11,26,10,58,11.40
2014,11,26,10,59,11.40
2014,11,26,11,00,11.40
2014,11,26,11,01,11.40
2014,11,26,11,02,11.40
2014,11,26,11,03,11.40
2014,11,26,11,04,11.40
2014,11,26,11,05,11.40
2014,11,26,11,06,11.40
2014,11,26,11,07,11.50
2014,11,26,11,08,11.60
2014,11,26,11,09,11.60
2014,11,26,11,10,11.60
2014,11,26,11,11,11.60
2014,11,26,11,12,11.60
2014,11,26,11,13,11.60
2014,11,26,11,14,11.60
2014,11,26,11,15,11.60
2014,11,26,11,16,11.60
2014,11,26,11,17,11.60
2014,11,26,11,18,11.60
2014,11,26,11,19,11.60
2014,11,26,11,20,11.60
2014,11,26,11,21,11.60
2014,11,26,11,22,11.60
2014,11,26,11,23,11.60
2014,11,26,11,24,11.60
2014,11,26,11,25,11.60
2014,11,26,11,26,11.60
2014,11,26,11,27,11.60
2014,11,26,11,28,11.60
2014,11,26,11,29,11.60
2014,11,26,11,30,11.60
2014,11,26,11,31,11.60
2014,11,26,11,32,11.60
2014,11,26,11,33,11.60
2014,11,26,11,34,11.60
2014,11,26,11,35,11.60
2014,11,26,11,36,11.60
2014,11,26,11,37,11.60
2014,11,26,11,38,11.60
2014,11,26,11,39,11.60
2014,11,26,11,40,11.60
2014,11,26,11,41,11.60
2014,11,26,11,42,11.60
2014,11,26,11,43,11.60
2014,11,26,11,44,11.60
2014,11,26,11,45,11.60
2014,11,26,11,46,11.60
2014,11,26,11,47,11.60
2014,11,26,11,48,11.60
2014,11,26,11,49,11.60
2014,11,26,11,50,11.60
2014,11,26,11,51,11.60
2014,11,26,11,52,11.60
2014,11,26,11,53,11.60
2014,11,26,11,54,11.60
2014,11,26,11,55,11.60
2014,11,26,11,56,11.60
2014,11,26,11,57,11.60
2014,11,26,11,58,11.60
2014,11,26,11,59,11.60
2014,11,26,12,00,11.60
2014,11,26,12,01,11.60
2014,11,26,12,02,11.60
2014,11,26,12,03,11.60
2014,11,26,12,04,11.60
2014,11,26,12,05,11.60
2014,11,26,12,06,11.60
2014,11,26,12,07,11.60
2014,11,26,12,08,11.60
2014,11,26,12,09,11.60
2014,11,26,12,10,11.60
2014,11,26,12,11,11.60
2014,11,26,12,12,11.60
2014,11,26,12,13,11.60
2014,11,26,12,14,11.60
2014,11,26,12,15,11.60
2014,11,26,12,16,11.70
2014,11,26,12,17,11.60
2014,11,26,12,18,11.70
2014,11,26,12,19,11.60
2014,11,26,12,20,11.60
2014,11,26,12,21,11.60
2014,11,26,12,22,11.60
2014,11,26,12,23,11.60
2014,11,26,12,24,11.60
2014,11,26,12,25,11.60
2014,11,26,12,26,11.60
2014,11,26,12,27,11.60
2014,11,26,12,28,11.60
2014,11,26,12,29,11.60
2014,11,26,12,30,11.60
2014,11,26,12,31,11.60
2014,11,26,12,32,11.60
2014,11,26,12,33,11.60
2014,11,26,12,34,11.60
2014,11,26,12,35,11.60
2014,11,26,12,36,11.60
2014,11,26,12,37,11.60
2014,11,26,12,38,11.60
2014,11,26,12,39,11.60
2014,11,26,12,40,11.60
2014,11,26,12,41,11.60
2014,11,26,12,42,11.60
2014,11,26,12,43,11.60
2014,11,26,12,44,11.60
2014,11,26,12,45,11.60
2014,11,26,12,46,11.60
2014,11,26,12,47,11.60
2014,11,26,12,48,11.60
2014,11,26,12,49,11.60
2014,11,26,12,50,11.60
2014,11,26,12,51,11.60
2014,11,26,12,52,11.60
2014,11,26,12,53,11.60
2014,11,26,12,54,11.60
2014,11,26,12,55,11.60
2014,11,26,12,56,11.60
2014,11,26,12,57,11.60
2014,11,26,12,58,11.60
2014,11,26,12,59,11.60
2014,11,26,13,00,11.60
2014,11,26,13,01,11.60
2014,11,26,13,02,11.60
2014,11,26,13,03,11.50
2014,11,26,13,04,11.40
2014,11,26,13,05,11.20
2014,11,26,13,06,11.00
2014,11,26,13,07,10.90
2014,11,26,13,08,10.80
2014,11,26,13,09,10.80
2014,11,26,13,10,10.70
2014,11,26,13,11,10.70
2014,11,26,13,12,10.50
2014,11,26,13,13,10.40
2014,11,26,13,14,10.40
2014,11,26,13,15,10.30
2014,11,26,13,16,10.20
2014,11,26,13,17,10.10
2014,11,26,13,18,10.00
2014,11,26,13,19,9.90
2014,11,26,13,20,9.80
2014,11,26,13,21,9.80
2014,11,26,13,22,9.80
2014,11,26,13,23,9.80
2014,11,26,13,24,9.70
2014,11,26,13,25,9.70
2014,11,26,13,26,9.70
2014,11,26,13,27,9.70
2014,11,26,13,28,9.70
2014,11,26,13,29,9.70
2014,11,26,13,30,9.70
2014,11,26,13,31,9.70
2014,11,26,13,32,9.70
2014,11,26,13,33,9.80
2014,11,26,13,34,9.80
2014,11,26,13,35,9.90
2014,11,26,13,36,9.90
2014,11,26,13,37,9.90
2014,11,26,13,38,9.90
2014,11,26,13,39,9.90
2014,11,26,13,40,9.90
2014,11,26,13,41,9.90
2014,11,26,13,42,9.90
2014,11,26,13,43,9.90
2014,11,26,13,44,9.90
2014,11,26,13,45,9.80
2014,11,26,13,46,9.80
2014,11,26,13,47,9.80
2014,11,26,13,48,9.80
2014,11,26,13,49,9.80
2014,11,26,13,50,9.80
2014,11,26,13,51,9.80
2014,11,26,13,52,9.90
2014,11,26,13,53,9.90
2014,11,26,13,54,9.90
2014,11,26,13,55,9.90
2014,11,26,13,56,9.90
2014,11,26,13,57,9.90
2014,11,26,13,58,9.90
2014,11,26,13,59,9.90
2014,11,26,14,00,9.90
2014,11,26,14,01,9.90
2014,11,26,14,02,9.90
2014,11,26,14,03,10.00
2014,11,26,14,04,10.10
2014,11,26,14,05,10.10
2014,11,26,14,06,10.10
2014,11,26,14,07,10.10
2014,11,26,14,08,10.10
2014,11,26,14,09,10.10
2014,11,26,14,10,10.10
2014,11,26,14,11,10.10
2014,11,26,14,12,10.20
2014,11,26,14,13,10.20
2014,11,26,14,14,10.20
2014,11,26,14,15,10.20
2014,11,26,14,16,10.20
2014,11,26,14,17,10.30
2014,11,26,14,18,10.30
2014,11,26,14,19,10.30
2014,11,26,14,20,10.30
2014,11,26,14,21,10.30
2014,11,26,14,22,10.30
2014,11,26,14,23,10.30
2014,11,26,14,24,10.30
2014,11,26,14,25,10.30
2014,11,26,14,26,10.40
2014,11,26,14,27,10.40
2014,11,26,14,28,10.40
2014,11,26,14,29,10.40
2014,11,26,14,30,10.40
2014,11,26,14,31,10.40
2014,11,26,14,32,10.40
2014,11,26,14,33,10.40
2014,11,26,14,34,10.40
2014,11,26,14,35,10.40
2014,11,26,14,36,10.40
2014,11,26,14,37,10.40
2014,11,26,14,38,10.40
2014,11,26,14,39,10.40
2014,11,26,14,40,10.40
2014,11,26,14,41,10.50
2014,11,26,14,42,10.60
2014,11,26,14,43,10.60
2014,11,26,14,44,10.60
2014,11,26,14,45,10.60
2014,11,26,14,46,10.60
2014,11,26,14,47,10.60
2014,11,26,14,48,10.60
2014,11,26,14,49,10.60
2014,11,26,14,50,10.60
2014,11,26,14,51,10.70
2014,11,26,14,52,10.70
2014,11,26,14,53,10.70
2014,11,26,14,54,10.70
2014,11,26,14,55,10.70
2014,11,26,14,56,10.70
2014,11,26,14,57,10.70
2014,11,26,14,58,10.70
2014,11,26,14,59,10.70
2014,11,26,15,00,10.80
2014,11,26,15,01,10.80
2014,11,26,15,02,10.80
2014,11,26,15,03,10.80
2014,11,26,15,04,10.80
2014,11,26,15,05,10.80
2014,11,26,15,06,10.80
2014,11,26,15,07,10.80
2014,11,26,15,08,10.90
2014,11,26,15,09,10.90
2014,11,26,15,10,10.90
2014,11,26,15,11,10.90
2014,11,26,15,12,10.90
2014,11,26,15,13,10.90
2014,11,26,15,14,10.90
2014,11,26,15,15,10.90
2014,11,26,15,16,10.90
2014,11,26,15,17,10.90
2014,11,26,15,18,10.90
2014,11,26,15,19,10.90
2014,11,26,15,20,10.90
2014,11,26,15,21,10.90
2014,11,26,15,22,10.90
2014,11,26,15,23,10.90
2014,11,26,15,24,10.90
2014,11,26,15,25,10.90
2014,11,26,15,26,10.90
2014,11,26,15,27,10.90
2014,11,26,15,28,10.90
2014,11,26,15,29,10.90
2014,11,26,15,30,10.90
2014,11,26,15,31,10.90
2014,11,26,15,32,10.90
2014,11,26,15,33,10.90
2014,11,26,15,34,10.90
2014,11,26,15,35,10.90
2014,11,26,15,36,10.90
2014,11,26,15,37,10.90
2014,11,26,15,38,10.90
2014,11,26,15,39,10.90
2014,11,26,15,40,10.90
2014,11,26,15,41,10.90
2014,11,26,15,42,10.90
2014,11,26,15,43,10.90
2014,11,26,15,44,10.90
2014,11,26,15,45,10.90
2014,11,26,15,46,10.90
2014,11,26,15,47,10.90
2014,11,26,15,48,10.90
2014,11,26,15,49,10.90
2014,11,26,15,50,10.90
2014,11,26,15,51,10.90
2014,11,26,15,52,10.90
2014,11,26,15,53,10.90
2014,11,26,15,54,10.90
2014,11,26,15,55,10.90
2014,11,26,15,56,10.90
2014,11,26,15,57,10.90
2014,11,26,15,58,10.90
2014,11,26,15,59,10.90
2014,11,26,16,00,10.90
2014,11,26,16,01,10.90
2014,11,26,16,02,10.90
2014,11,26,16,03,10.90
2014,11,26,16,04,10.90
2014,11,26,16,05,10.80
2014,11,26,16,06,10.80
2014,11,26,16,07,10.80
2014,11,26,16,08,10.80
2014,11,26,16,09,10.70
2014,11,26,16,10,10.70
2014,11,26,16,11,10.70
2014,11,26,16,12,10.70
2014,11,26,16,13,10.70
2014,11,26,16,14,10.70
2014,11,26,16,15,10.70
2014,11,26,16,16,10.70
2014,11,26,16,17,10.60
2014,11,26,16,18,10.60
2014,11,26,16,19,10.60
2014,11,26,16,20,10.60
2014,11,26,16,21,10.60
2014,11,26,16,22,10.60
2014,11,26,16,23,10.60
2014,11,26,16,24,10.60
2014,11,26,16,25,10.60
2014,11,26,16,26,10.60
2014,11,26,16,27,10.60
2014,11,26,16,28,10.60
2014,11,26,16,29,10.60
2014,11,26,16,30,10.60
2014,11,26,16,31,10.60
2014,11,26,16,32,10.60
2014,11,26,16,33,10.60
2014,11,26,16,34,10.60
2014,11,26,16,35,10.60
2014,11,26,16,36,10.60
2014,11,26,16,37,10.60
2014,11,26,16,38,10.60
2014,11,26,16,39,10.60
2014,11,26,16,40,10.60
2014,11,26,16,41,10.60
2014,11,26,16,42,10.60
2014,11,26,16,43,10.60
2014,11,26,16,44,10.60
2014,11,26,16,45,10.60
2014,11,26,16,46,10.40
2014,11,26,16,47,10.40
2014,11,26,16,48,10.40
2014,11,26,16,49,10.40
2014,11,26,16,50,10.40
2014,11,26,16,51,10.40
2014,11,26,16,52,10.40
2014,11,26,16,53,10.40
2014,11,26,16,54,10.40
2014,11,26,16,55,10.40
2014,11,26,16,56,10.40
2014,11,26,16,57,10.40
2014,11,26,16,58,10.40
2014,11,26,16,59,10.40
2014,11,26,17,00,10.40
2014,11,26,17,01,10.40
2014,11,26,17,02,10.40
2014,11,26,17,03,10.40
2014,11,26,17,04,10.40
2014,11,26,17,05,10.40
2014,11,26,17,06,10.40
2014,11,26,17,07,10.40
2014,11,26,17,08,10.40
2014,11,26,17,09,10.40
2014,11,26,17,10,10.40
2014,11,26,17,11,10.40
2014,11,26,17,12,10.40
2014,11,26,17,13,10.40
2014,11,26,17,14,10.40
2014,11,26,17,15,10.40
2014,11,26,17,16,10.40
2014,11,26,17,17,10.40
2014,11,26,17,18,10.40
2014,11,26,17,19,10.40
2014,11,26,17,20,10.40
2014,11,26,17,21,10.40
2014,11,26,17,22,10.40
2014,11,26,17,23,10.40
2014,11,26,17,24,10.40
2014,11,26,17,25,10.40
2014,11,26,17,26,10.40
2014,11,26,17,27,10.40
2014,11,26,17,28,10.40
2014,11,26,17,29,10.40
2014,11,26,17,30,10.40
2014,11,26,17,31,10.40
2014,11,26,17,32,10.40
2014,11,26,17,33,10.40
2014,11,26,17,34,10.40
2014,11,26,17,35,10.40
2014,11,26,17,36,10.30
2014,11,26,17,37,10.30
2014,11,26,17,38,10.30
2014,11,26,17,39,10.30
2014,11,26,17,40,10.30
2014,11,26,17,41,10.30
2014,11,26,17,42,10.30
2014,11,26,17,43,10.40
2014,11,26,17,44,10.40
2014,11,26,17,45,10.40